SPACEBEE-15 (46302 NORAD) Tracking and Keplerian Element Data

This shows tracking and keplerian element data for the satellite.

Feedback or suggestion? Click here.




ElementValue
Catalog46302
NameSPACEBEE-15
Epoch Orbit304
Epoch Day267.94361718
Epoch Year2020
RAAN340.7096
Inclination97.5179
Eccentricity0.0001548
Argument of Perigee125.2835
Mean Anonmoly234.854
Mean Motion15.1065455
Decay Rate1.861E-05
L11 46302U 20061AG 20267.94361718 .00001861 00000-0 11635-3 0 9995
L22 46302 97.5179 340.7096 0001548 125.2835 234.8540 15.10654550 3043

Live tracking and technical data element details for SPACEBEE-15 (NORAD 46302). SPACEBEE-15 can be tracked NOW for your location showing map with azimuth and elevation plus other details from your city location.

Track the satellite on the map from your city or location and see movement details for azimuth, elevation, latitude, longitude, range, height, and movement on the map or in text.







IsCatalogInMostPopularTable: catalog: 46302, numindb: -1

Insert: records affected: 1


GetName: 46302 SPACEBEE-15

Hit Count: inserted at: Sat, 26 Sep 2020 13:54:36 GMT